{"data":{"norad_id":52140,"epoch":"2026-05-25T02:10:11.589888Z","epoch_age_seconds":77411,"freshness":"FRESH","line1":"1 52140U 22029BE  26145.09041192  .00000265  00000+0  34745-4 0  9990","line2":"2 52140  53.2146  86.1406 0001235  87.7601 272.3533 15.08834753232477","mean_motion":15.08834753,"eccentricity":0.0001235,"inclination_deg":53.2146,"raan_deg":86.1406,"arg_perigee_deg":87.7601,"mean_anomaly_deg":272.3533,"bstar":3.4745e-5,"rev_number":23247,"period_min":95.437886563579,"perigee_km":538.90506678175,"apogee_km":540.61378719922,"semimajor_km":6917.8964269905,"source":"CELESTRAK","updated_at":"2026-05-25T13:38:17.079618Z"}}